STARLINK-4678, 53780

Orbit data source: Space-Track

STARLINK-4678, 53780 is a payload satellite owned by SpaceX/Seattle (US) in LEO that was launched on Sun, 11 Sep 2022 UTC via an FALCON 9 launch vehicle from the Air Force Eastern Test Range (AFETR). Payload-class satellites include a variety of spacecraft equipped with specific instruments for various scientific and technological missions. These include communications satellites like Starlink; space stations such as the ISS; scientific satellites like the Hubble; Earth observation satellites from companies like Planet Labs, Umbra, and HawkEye 360; GPS; miniature CubeSats for education and research; and military/defense satellites.

Loading next visibility...
Identifier
53780, 2022-111H
Orbit
LEO
Country
Flag of USUS
Related business
Manufacturer
SpaceX/Seattle
Mission
Operational Commercial Communications
Bus & Motor
STARLINK, Unknown motor
Mass
305 kg wet, ~290 kg dry
Launch date (UTC)
2022-09-11 (3 years ago)
Launch vehicle
FALCON 9
Launch site
Air Force Eastern Test Range (AFETR)
Object type
Payload
Rocket body
Debris
Shape & HBR
Box + 1 Pan, 10.1 m
Radar Cross Section
13.562 m², Large (>1 m²)

Expand to show TLE details & history
Last TLE update: 8 hours ago

TLE from 8 hours ago
0 STARLINK-4678
1 53780U 22111H   26035.37253152 -.00005673  00000-0 -33901-3 0  9996
2 53780  53.2182  63.8811 0001597  86.8925 273.2250 15.08795940188661
Epoch: 2026-02-04T08:56Z
TLE epoch observation values (Epoch: 2026-02-04T08:56:26.723Z)
Latitude
-0.00001°
Longitude
155.2297°
Altitude
540.714 km
Speed
7.593 km/s
True Right ascension
04h 15m 31s
True Declination
0° 00' 00"
Sunlit
Object was in daylight at epoch
Visualization orbit readout
Latitude
Unknown
Longitude
Unknown
Altitude
Unknown
Speed
Unknown
Apparent Right ascension
Unknown
Apparent Declination
Unknown
Sunlit
N/A
Visualization observer readout
Local Sidereal Time
18:42:59
Azimuth
Unknown
Elevation
Unknown
Doppler factor
Unknown
Orbital elements
Apogee altitude
541.228 km
Perigee altitude
539.018 km
Semi-major axis
6,918.26 km
Eccentricity
0.00016
Inclination
53.2182°
RAAN
63.8811°
Arg. of periapsis
86.8925°
True anomaly
273.20673°
Mean anomaly
273.225°
Eccentric anomaly
273.21586°
Mean motion
3.77179 °/min
Orbital period
95.45 mins
BSTAR
-0.00033901
Loading maneuver chart data...
Computing Atmospheric mass density...
Loading historical data...
Loading historical data...
Loading historical data...
Loading historical data...
Loading historical data...
Loading historical data...
Loading historical data...

Documentation

Showing up to 5 results
|